Weather History for Morganton, NC

Change the Weather History Date:

Friday, May 17, 2013

  Actual Average (KHKY) Record (KHKY)
Temperature  
Mean Temperature 67 °F -  
Max Temperature 83 °F 76 °F 89 °F (1962)
Min Temperature 51 °F 54 °F 41 °F (1997)
Cooling Degree Days 2    
Growing Degree Days 17 (Base 50)    
Moisture  
Dew Point 57 °F    
Average Humidity 71    
Maximum Humidity 100    
Minimum Humidity 35    
Precipitation  
Precipitation 0.00 in - - ()
Sea Level Pressure  
Sea Level Pressure 30.12 in    
Wind  
Wind Speed 1 mph (SE)    
Max Wind Speed 8 mph    
Max Gust Speed -    
Visibility 8 miles    
Events      
Averages and records for this station are not official NWS values.
T = Trace of Precipitation, MM = Missing Value Source: NWS Daily Summary

Daily Weather History Graph

Daily Weather History Graph

Search for Another Location

Airport:

Trip Planner

Search our weather history database for the weather conditions in past years. The results will help you decide how hot, cold, wet, or windy it might be!

Date:

Astronomy

May. 17, 2013 Rise Set
Actual Time 6:19 AM EDT 8:26 PM EDT
Civil Twilight 5:50 AM EDT 8:55 PM EDT
Nautical Twilight 5:15 AM EDT 9:30 PM EDT
Astronomical Twilight 4:38 AM EDT 10:08 PM EDT
Moon 12:44 PM EDT (5/17) 1:23 AM EDT (5/17)
Length of Visible Light 15h 04m
Length of Day
14h 07m
Waxing Crescent, 45% of the Moon is Illuminated
May 17
Waxing Crescent
May 18
First Quarter
May 25
Full
May 31
Last Quarter
Jun 8
New

Hourly Weather History & Observations

Time (EDT) Temp. Heat Index Dew Point Humidity Pressure Visibility Wind Dir Wind Speed Gust Speed Precip Events Conditions
12:15 AM 57.2 °F - 56.8 °F 99% 30.08 in 7.0 mi Calm Calm - N/A   Clear
12:35 AM 61.0 °F - 61.0 °F 100% 30.09 in 7.0 mi NNW 3.5 mph - N/A   Clear
12:55 AM 59.2 °F - 59.0 °F 99% 30.08 in 5.0 mi Calm Calm - N/A   Clear
1:15 AM 58.5 °F - 58.5 °F 100% 30.08 in 7.0 mi Calm Calm - N/A   Clear
1:35 AM 57.9 °F - 57.6 °F 99% 30.07 in 7.0 mi Calm Calm - N/A   Clear
1:55 AM 56.3 °F - 56.3 °F 100% 30.07 in 3.0 mi Calm Calm - N/A   Clear
2:15 AM 54.7 °F - 54.7 °F 100% 30.07 in 2.0 mi Calm Calm - N/A   Clear
2:35 AM 54.5 °F - 54.5 °F 100% 30.08 in 1.0 mi Calm Calm - N/A   Mist
2:55 AM 52.9 °F - 52.9 °F 100% 30.08 in 7.0 mi Calm Calm - N/A   Clear
3:15 AM 54.1 °F - 54.1 °F 100% 30.08 in 5.0 mi Calm Calm - N/A   Clear
3:35 AM 52.3 °F - 52.3 °F 100% 30.09 in 7.0 mi Calm Calm - N/A   Clear
3:55 AM 52.2 °F - 52.0 °F 99% 30.09 in 5.0 mi Calm Calm - N/A   Clear
4:15 AM 52.2 °F - 52.2 °F 100% 30.09 in 7.0 mi Calm Calm - N/A   Clear
4:35 AM 51.8 °F - 51.8 °F 100% 30.10 in 5.0 mi Calm Calm - N/A   Clear
4:55 AM 53.8 °F - 53.8 °F 100% 30.10 in 10.0 mi Calm Calm - N/A   Clear
5:15 AM 52.7 °F - 52.7 °F 100% 30.10 in 5.0 mi Calm Calm - N/A   Clear
5:35 AM 53.1 °F - 53.1 °F 100% 30.11 in 5.0 mi Calm Calm - N/A   Clear
5:55 AM 52.7 °F - 52.7 °F 100% 30.12 in 5.0 mi Calm Calm - N/A   Clear
6:15 AM 54.7 °F - 54.7 °F 100% 30.12 in 7.0 mi Calm Calm - N/A   Clear
6:35 AM 53.6 °F - 53.2 °F 99% 30.13 in 5.0 mi Calm Calm - N/A   Clear
6:55 AM 53.8 °F - 53.8 °F 100% 30.13 in 7.0 mi Calm Calm - N/A   Clear
7:15 AM 53.1 °F - 53.1 °F 100% 30.13 in 4.0 mi Calm Calm - N/A   Clear
7:35 AM 56.7 °F - 56.5 °F 99% 30.14 in 10.0 mi Calm Calm - N/A   Clear
7:55 AM 58.6 °F - 53.8 °F 84% 30.15 in 10.0 mi Calm Calm - N/A   Clear
8:15 AM 60.4 °F - 53.6 °F 78% 30.15 in 10.0 mi SW 3.5 mph - N/A   Clear
8:35 AM 61.9 °F - 53.6 °F 74% 30.16 in 10.0 mi Calm Calm - N/A   Clear
8:55 AM 64.2 °F - 53.8 °F 69% 30.15 in 10.0 mi Calm Calm - N/A   Clear
9:15 AM 67.1 °F - 52.5 °F 59% 30.16 in 10.0 mi Calm Calm - N/A   Clear
9:35 AM 69.8 °F - 54.7 °F 59% 30.16 in 10.0 mi Calm Calm - N/A   Clear
9:55 AM 71.4 °F - 56.7 °F 60% 30.16 in 10.0 mi Calm Calm - N/A   Clear
10:15 AM 72.7 °F - 56.8 °F 57% 30.16 in 10.0 mi Calm Calm - N/A   Clear
10:35 AM 74.7 °F - 58.5 °F 57% 30.16 in 10.0 mi Calm Calm - N/A   Clear
10:55 AM 75.9 °F - 58.1 °F 54% 30.16 in 10.0 mi Calm Calm - N/A   Clear
11:15 AM 76.8 °F - 58.5 °F 53% 30.16 in 10.0 mi NNW 3.5 mph - N/A   Clear
11:35 AM 78.3 °F - 58.6 °F 51% 30.16 in 10.0 mi Calm Calm - N/A   Clear
11:55 AM 80.8 °F 80.7 °F 55.9 °F 42% 30.15 in 10.0 mi SE 3.5 mph - N/A   Clear
12:15 PM 81.7 °F 81.2 °F 55.4 °F 40% 30.15 in 10.0 mi SE 6.9 mph - N/A   Clear
12:35 PM 82.0 °F 81.5 °F 55.8 °F 40% 30.15 in 10.0 mi SE 5.8 mph - N/A   Scattered Clouds
12:55 PM 82.0 °F 81.2 °F 53.1 °F 37% 30.14 in 10.0 mi NNE 3.5 mph - N/A   Clear
1:15 PM 82.6 °F 81.6 °F 53.8 °F 37% 30.14 in 10.0 mi East 5.8 mph - N/A   Clear
1:35 PM 83.3 °F 82.1 °F 53.6 °F 36% 30.14 in 10.0 mi ESE 4.6 mph - N/A   Scattered Clouds
1:55 PM 83.1 °F - 52.5 °F 35% 30.13 in 10.0 mi ESE 3.5 mph - N/A   Scattered Clouds
2:15 PM 83.5 °F 82.1 °F 53.4 °F 35% 30.13 in 10.0 mi SSE 4.6 mph - N/A   Scattered Clouds
2:35 PM 83.1 °F - 52.7 °F 35% 30.13 in 10.0 mi SSE 5.8 mph - N/A   Scattered Clouds
3:15 PM 80.8 °F 80.8 °F 56.7 °F 43% 30.12 in 10.0 mi Calm Calm - N/A   Mostly Cloudy
3:35 PM 81.0 °F 80.9 °F 56.5 °F 43% 30.12 in 10.0 mi Calm Calm - N/A   Overcast
3:55 PM 80.1 °F 80.5 °F 57.4 °F 46% 30.12 in 10.0 mi Calm Calm - N/A   Mostly Cloudy
4:15 PM 80.8 °F 81.1 °F 58.1 °F 46% 30.10 in 10.0 mi South 3.5 mph - N/A   Mostly Cloudy
4:35 PM 82.4 °F 81.8 °F 56.1 °F 40% 30.10 in 10.0 mi SE 4.6 mph - N/A   Scattered Clouds
4:55 PM 82.6 °F 82.2 °F 57.4 °F 42% 30.09 in 10.0 mi South 5.8 mph - N/A   Clear
5:15 PM 83.1 °F 82.6 °F 57.0 °F 41% 30.09 in 10.0 mi SE 4.6 mph - N/A   Clear
5:35 PM 81.9 °F 81.7 °F 57.2 °F 43% 30.09 in 10.0 mi SSE 6.9 mph - N/A   Clear
5:55 PM 80.8 °F 81.1 °F 58.3 °F 46% 30.09 in - SSE 4.6 mph - N/A   Clear
6:15 PM 80.8 °F 80.8 °F 56.7 °F 43% 30.09 in - South 5.8 mph - N/A   Clear
6:35 PM 79.7 °F - 57.7 °F 47% 30.09 in - South 8.1 mph - N/A   Clear
7:15 PM 78.8 °F - 58.6 °F 50% 30.09 in - South 3.5 mph - N/A   Clear
7:35 PM 78.1 °F - 59.2 °F 52% 30.10 in - Calm Calm - N/A   Clear
7:55 PM 76.1 °F - 60.1 °F 57% 30.10 in 10.0 mi Calm Calm - N/A   Clear
8:15 PM 72.3 °F - 63.7 °F 74% 30.12 in 10.0 mi Calm Calm - N/A   Clear
8:35 PM 70.2 °F - 64.4 °F 82% 30.12 in 10.0 mi Calm Calm - N/A   Clear
8:55 PM 69.3 °F - 64.0 °F 83% 30.12 in 10.0 mi Calm Calm - N/A   Clear
9:15 PM 68.0 °F - 63.7 °F 86% 30.12 in 10.0 mi Calm Calm - N/A   Clear
9:35 PM 68.5 °F - 62.2 °F 80% 30.13 in 10.0 mi SSE 3.5 mph - N/A   Clear
9:55 PM 66.2 °F - 61.9 °F 86% 30.14 in 10.0 mi Calm Calm - N/A   Scattered Clouds
10:15 PM 67.3 °F - 61.7 °F 82% 30.14 in 10.0 mi Calm Calm - N/A   Scattered Clouds
10:35 PM 66.7 °F - 62.1 °F 85% 30.15 in 10.0 mi NNE 4.6 mph - N/A   Clear
10:55 PM 69.3 °F - 62.2 °F 78% 30.16 in 10.0 mi North 3.5 mph - N/A   Clear
11:15 PM 69.8 °F - 61.9 °F 76% 30.16 in 10.0 mi North 3.5 mph - N/A   Clear
11:35 PM 68.9 °F - 62.1 °F 79% 30.15 in 10.0 mi NNW 3.5 mph - N/A   Clear
11:55 PM 67.8 °F - 62.1 °F 82% 30.15 in 10.0 mi North 3.5 mph - N/A   Clear